Flag for U.S.A. Weather past 2 weeks in Durango, Colorado, U.S.A.

Now
49 °F

Clear.


Feels Like: 49 °F
Forecast: 48 / 81 °F
Wind: No wind

Location: Durango-La Plata County Airport

Current Time: Aug 30, 2014 at 5:23:50 AM

Latest Report: Aug 30, 2014 at 4:53 AM


Visibility: 10 mi

Pressure: 30.00 "Hg

Humidity: 74%

Dew point: 41 °F

Location of DurangoLocation

Historic Weather in Durango — Graph

°F

Durango temperature yesterday

Maximum temperature yesterday: 79 °F (at 4:53 PM)
Minimum temperature yesterday: 42 °F (at 4:53 AM)
Average temperature yesterday: 62 °F

Past Weeks' High & Low Weather Summary

 TemperatureHumidityPressure
High89 °F (Aug 17, 4:53 PM)100% (Aug 27, 4:01 AM)30.37 "Hg (Aug 27, 4:01 AM)
Low42 °F (Aug 28, 4:53 AM)14% (Aug 17, 4:53 PM)29.77 "Hg (Aug 19, 2:53 PM)
Average64 °F54%29.99 "Hg
* Reported Aug 15 3:53 AM — Aug 30 3:53 AM, Durango, Weather by CustomWeather, © 2014

Note: Actual official high and low records may vary slightly from our data, if they occured in-between our weather recording intervals... More about our weather records

Advertising

Durango weather history for previous 24 hours

 ConditionsComfort  
Time TempWeatherWind HumidityBarometerVisibility
3:53 AM
Aug 30
50 °FClear.No wind71%29.99 "Hg10 mi
2:53 AM50 °FClear.No wind74%29.98 "Hg10 mi
1:53 AM53 °FClear.3 mph66%29.98 "Hg10 mi
12:53 AM56 °FClear.3 mph58%29.98 "Hg10 mi
11:53 PM
Aug 29
59 °FClear.No wind51%29.96 "Hg10 mi
10:53 PM60 °FClear.9 mph49%29.97 "Hg10 mi
9:53 PM66 °FClear.5 mph37%29.96 "Hg10 mi
8:53 PM69 °FClear.8 mph32%29.95 "Hg10 mi
7:53 PM72 °FSunny.9 mph28%29.96 "Hg10 mi
6:53 PM76 °FSunny.13 mph24%29.96 "Hg10 mi
5:53 PM79 °FSunny.9 mph21%29.93 "Hg10 mi
4:53 PM79 °FSunny.7 mph18%29.94 "Hg10 mi
3:53 PM78 °FSunny.7 mph18%29.94 "Hg10 mi
2:53 PM78 °FSunny.6 mph17%29.96 "Hg10 mi
12:53 PM75 °FSunny.8 mph19%30.00 "Hg10 mi
11:53 AM72 °FSunny.No wind21%30.01 "Hg10 mi
10:53 AM71 °FSunny.5 mph23%30.03 "Hg10 mi
9:53 AM66 °FSunny.No wind36%30.03 "Hg10 mi
8:53 AM58 °FSunny.No wind50%30.05 "Hg10 mi
7:53 AM48 °FSunny.No wind68%30.08 "HgN/A
6:53 AM43 °FClear.No wind79%30.07 "HgN/A
5:53 AM45 °FClear.8 mph74%30.05 "HgN/A
Weather by CustomWeather, © 2014

See weather overviewHow to use our weather pages